World > North America > United States > South Dakota > Hereford

Hereford, SD Hourly Weather Conditions

Feedback E-mail the Weather

Quick WX

Hereford, SD Weather Maps

°F °C°F °C
Hereford Weather Map
UTC Time: 11/27/2022, 15:40
Your Time:

Hereford, SD Regional Weather

Expires:202211271600;;895506
ASUS43 KFSD 271510
RWRSD 

WEATHER ROUNDUP FOR SOUTH DAKOTA
NATIONAL WEATHER SERVICE SIOUX FALLS SD
900 AM CST SUN NOV 27 2022

NOTE: "FAIR" INDICATES FEW OR NO CLOUDS BELOW 12,000 FEET WITH NO
SIGNIFICANT WEATHER AND/OR OBSTRUCTIONS TO VISIBILITY.



SDZ012>016-024>037-041>051-057-063-072>074-271600-
SOUTHWEST AND SOUTH CENTRAL SOUTH DAKOTA
  
CITY           SKY/WX    TMP DP  RH WIND       PRES   REMARKS
RAPID CTY ARPT CLEAR     20  18  92 S5        29.85F WCI  13          
PIERRE         CLEAR     22  20  92 SW6       29.92F WCI  14          
CUSTER         CLEAR     22  19  89 SW6       29.80F WCI  14          
ELLSWORTH AFB  PTCLDY    23  16  73 S5        29.81F WCI  17          
PHILIP         CLEAR     19  17  92 SW3       29.91F                  
PINE RIDGE     CLEAR     13   9  84 CALM      29.91F                  
SPEARFISH      FAIR      25  18  74 CALM      29.77F                  
WINNER         CLEAR     25  21  85 W8        29.93F WCI  16          
$$
 

SKY/WX - Weather  TMP - Temperature  DP - Dew Point  RH - Humidity
WIND - Wind Direction/Speed PRES - Barometric Pressure VSB - Visibility
WCI - Wind Chill Index E13G22 Wind - East Wind 13 mph/Gusts of 22 mph

Trending Headlines

Trending Entertainment Headlines

Hereford Radar Loop

Use the map search tool if you want to place a location marker on the radar map...

Hereford Quick Facts

National Two Day Weather Forecast


E-mail the Hereford Weather Forecast

Voice your opinion or tell us about page issues...